Regional Weather Roundup
Issued by NWS

Home | Current Version | Previous Version | Graphics & Text | Print | Product List | Glossary On
Versions: 1 2 3 4 5 6 7 8 9 10 11 12 13 14 15 16 17 18 19 20 21 22 23 24 25 26 27 28 29 30 31 32 33 34 35 36 37 38 39 40 41 42 43 44 45 46 47 48 49 50
000
ASUS45 KSLC 040710
RWRUT

UTAH REGIONAL WEATHER ROUNDUP
NATIONAL WEATHER SERVICE SALT LAKE CITY UT
100 AM MDT MON MAY 04 2015

UTZ001>011-023>025-040800-

NORTHERN UTAH

CITY           SKY/WX    TMP DP  RH WIND       PRES   REMARKS
BRIGHAM CITY   CLOUDY    62  40  45 N5        29.92S
HILL AFB       CLOUDY    65  35  33 SE12      29.95S
LOGAN          CLEAR     53  45  74 N3        29.94S
OGDEN          CLOUDY    66  38  35 S7        29.92R
PROVO AIRPORT  CLOUDY    63  39  42 SE7       29.98R
SALT LAKE CITY CLOUDY    65  42  43 E8        29.94R
VERNAL         MOCLDY    54  37  52 W3        30.01R
WENDOVER       MOCLDY    61  36  39 NE6       29.91S
HEBER CITY     CLOUDY    55  41  58 E3        30.01S
WEST JORDAN    CLOUDY    63  43  48 CALM      29.96R

$$

UTZ012>022-026-027-040800-

SOUTHERN/CENTRAL UTAH

CITY           SKY/WX    TMP DP  RH WIND       PRES   REMARKS
BLANDING       PTCLDY    50  37  62 CALM      30.10R
BRYCE CANYON   MOCLDY    39  35  86 W6        30.09S WCI  35
CEDAR CITY     CLOUDY    55  37  50 E9        29.98F
DELTA          CLOUDY    60  41  49 CALM      29.97R
HANKSVILLE     PTCLDY    59  37  44 E7        29.95R
MILFORD        CLOUDY    61  36  39 S12       29.95R
MOAB/CYNLANDS  MOCLDY    57  41  55 CALM      29.94R
PRICE          NOT AVBL
ST GEORGE      CLOUDY    66  39  37 E12       29.90R
KANAB          CLOUDY    52  39  62 W3        30.03R

$$

REGIONAL REPORTS     COLORADO/ARIZONA

CITY           SKY/WX    TMP DP  RH WIND       PRES   REMARKS
CRAIG, CO      CLOUDY    50  43  77 E5        30.09R
GRAND JUNCTION PTCLDY    56  42  59 E14       30.00S
RIFLE          LGT RAIN  51  48  89 SE10      30.09F
MONTROSE       MOCLDY    49  39  68 S5        30.08S
CORTEZ         CLEAR     44  36  73 SE5       30.05R
PAGE, AZ       PTCLDY    62  39  42 S3        29.95S
GRAND CANYON   PTCLDY    36  34  92 CALM      30.06F
KINGMAN        MOCLDY    66  36  32 SE10      29.88S
FLAGSTAFF      CLEAR     39  34  82 CALM      30.09S

$$

REGIONAL REPORTS    NEVADA/IDAHO/WYOMING

CITY           SKY/WX    TMP DP  RH WIND       PRES   REMARKS
LAS VEGAS, NV  PTCLDY    75  25  15 S8        29.73S
ELY            CLOUDY    56  34  43 S14       30.01R
ELKO           CLEAR     51  33  50 E5        29.94R
POCATELLO, ID  CLEAR     55  38  52 S5        29.93R
BURLEY         CLOUDY    55  41  59 NE6       29.89R
EVANSTON, WY   PTCLDY    45  38  76 E6        30.08R
ROCK SPRINGS   CLOUDY    44  38  79 N5        30.08R
KEMMERER       PTCLDY    37  37 100 N7        30.10S WCI  32

$$



USA.gov is the U.S. government's official web portal to all federal, state and local government web resources and services.